CZ-6A DEB, 54600

Orbit data source: Space-Track

CZ-6A DEB, 54600 is space debris in SSO originally from a launch on Fri, 11 Nov 2022 UTC launched from the Taiyaun Space Center, China (TSC). Debris objects in space refer to the collection of defunct objects orbiting the Earth. Examples of debris include non-operational satellites, rocket bodies, and fragments generated from explosions, collisions, or faulty payload assembly.

Loading next visibility...
Identifier
54600, 2022-151NA
Orbit
SSO
Country
Flag of CNCN / PRC
Related business
Manufacturer
SAST
Mission
Spacecraft
Bus & Motor
Unknown
Mass
Unknown
Launch date (UTC)
2022-11-11 (4 years ago)
Launch vehicle
Unknown
Launch site
Taiyaun Space Center, China (TSC)
Object type
Payload
Rocket body
Debris
Shape & HBR
Unknown shape, 0.1 m
Radar Cross Section
Medium (>0.1 m² and <1 m²)

Expand to show TLE details & history
Last TLE update: 12 hours ago

TLE from 12 hours ago
0 CZ-6A DEB
1 54600U 22151NA  26237.14571623  .00012821  00000-0  18490-2 0  9993
2 54600  98.6032 305.6426 0063733  62.8547 297.9139 14.75022817200408
Epoch: 2026-08-25T03:29Z
TLE epoch observation values (Epoch: 2026-08-25T03:29:49.882Z)
Latitude
-0.00009°
Longitude
-80.23249°
Altitude
627.337 km
Speed
7.556 km/s
True Right ascension
20h 22m 34s
True Declination
0° 00' 00"
Sunlit
Object was in full shadow at epoch
Visualization orbit readout
Latitude
Unknown
Longitude
Unknown
Altitude
Unknown
Speed
Unknown
Apparent Right ascension
Unknown
Apparent Declination
Unknown
Sunlit
N/A
Visualization observer readout
Local Sidereal Time
06:29:03
Azimuth
Unknown
Elevation
Unknown
Doppler factor
Unknown
Orbital elements
Apogee altitude
686.901 km
Perigee altitude
597.416 km
Semi-major axis
7,020.296 km
Eccentricity
0.00637
Inclination
98.6032°
RAAN
305.6426°
Arg. of periapsis
62.8547°
True anomaly
297.26614°
Mean anomaly
297.9139°
Eccentric anomaly
297.59026°
Mean motion
3.68986 °/min
Orbital period
97.56 mins
BSTAR
0.001849
Loading maneuver chart data...
Computing Atmospheric mass density...
Loading historical data...
Loading historical data...
Loading historical data...
Loading historical data...
Loading historical data...
Loading historical data...
Loading historical data...

Documentation

Showing up to 5 results
|